User: anonymous   Login
Location: Hickory_CSC
(35.7330°N, 81.3330°W)
Time: 22:33:29
(UTC-04:00)
Language:

Cosmos 1356 Rocket - Orbit

View from above orbital plane
View from above orbital plane
View from above satellite
View from above satellite

Ground track
Ground track

The orbit data is extracted from the following two-line orbital elements,

1 13154U 82039B   17085.94174766 +.00000390 +00000-0 +30478-4 0  9999
2 13154 081.1841 323.3136 0039907 197.9283 162.0531 14.98273334891142
Epoch (UTC): 26 March 2017 22:36:06
Eccentricity: 0.0039907
inclination: 81.1841°
perigee height: 544 km
apogee height: 600 km
right ascension of ascending node: 323.3136°
argument of perigee: 197.9283°
revolutions per day: 14.98273334
mean anomaly at epoch: 162.0531°
orbit number at epoch: 89114

The dashed part of the orbit path shows where the satellite is in the earth's shadow,  

DLR